Погода в Цаган-Нуре

Россия / Республика Калмыкия     47°22′05″N   45°13′40″E
темп.,
°C
ветер,
м/с
пор.,
м/с
влажн.,
%
обл.,
%
осадки,
мм/ч
давл.,
гПа
погр.,
м
13 мая, чт
чт1300:00+16св47560 0.0 1016110
03:00+14св37685 0.0 1015147
06:00+15св23721 0.0 1014119
09:00+20вюв11540 0.0 1015477
12:00+24ю33410 0.0 10151093
15:00+27ююв33330 0.0 10151253
18:00+27вюв23361 0.0 101585
21:00+22в33405 0.0 101522
14 мая, пт
пт1400:00+19ююв45535 0.0 101564
03:00+17юв466217 0.0 101697
06:00+17юв3866100 0.0 1016238
09:00+25юв711414 0.0 1016632
12:00+31юв912250 0.0 10151577
15:00+33юв1114180 0.0 10142212
18:00+28юв1014241 0.0 1014634
21:00+23юв817250 0.0 1016453
15 мая, сб
сб1500:00+20юв615335 0.0 1016312
03:00+18вюв513365 0.0 1015196
06:00+19вюв514421 0.0 1016265
09:00+28юв9152440 0.0 1015878
12:00+32юв11131698 0.0 10152346
15:00+32юв1011155 0.0 10142744
18:00+29юв813220 0.0 1014483
21:00+22юв614360 0.0 1015282
16 мая, вс
вс1600:00+20юв513415 0.0 1015219
03:00+19вюв59445 0.0 1014129
06:00+20в49425 0.0 1014190
09:00+28юв6929100 0.0 1013598
12:00+33юв11121891 0.0 10123260
15:00+33юв11121755 0.0 10113235
18:00+30юв711235 0.0 1011460
21:00+24вюв514300 0.0 1012316
17 мая, пн
пн1700:00+21в614355 0.0 1012253
03:00+19в513345 0.0 1011215
06:00+20в613395 0.0 1011255
09:00+29юв1014205 0.0 10101357
12:00+33юв11131390 0.0 10102833
15:00+33юв101112100 0.0 10092991
18:00+29юв71317100 0.0 1010398
21:00+24вюв5923100 0.0 1011138